Pineville, WV

6:23 AM EDT on April 27, 2017 (GMT -0400)
Pineville

Weather History for KI16 - August, 2013

Change the Weather History Date:

Saturday, August 31, 2013

  Actual Average (KBKW) Record (KBKW)
Temperature  
Mean Temperature 74 °F -  
Max Temperature 83 °F 77 °F 94 °F (1953)
Min Temperature 66 °F 58 °F 39 °F (1897)
Cooling Degree Days 10    
Growing Degree Days 24 (Base 50)    
Moisture  
Dew Point 70 °F    
Average Humidity 94    
Maximum Humidity 100    
Minimum Humidity 73    
Precipitation  
Precipitation 0.00 in - - ()
Sea Level Pressure  
Sea Level Pressure 30.01 in    
Wind  
Wind Speed - (North)    
Max Wind Speed -    
Max Gust Speed -    
Visibility 5 miles    
Events Fog , Rain    
Averages and records for this station are not official NWS values.
T = Trace of Precipitation, MM = Missing Value Source: NWS Daily Summary

Daily Weather History Graph

Daily Weather History Graph

Search for Another Location

Airport or City:

Trip Planner

Search our weather history database for the weather conditions in past years. The results will help you decide how hot, cold, wet, or windy it might be!

Date:

Astronomy

Aug. 31, 2013 Rise Set
Actual Time 6:55 AM EDT 7:56 PM EDT
Civil Twilight 6:28 AM EDT 8:23 PM EDT
Nautical Twilight 5:57 AM EDT 8:54 PM EDT
Astronomical Twilight 5:23 AM EDT 9:27 PM EDT
Moon 2:26 AM EDT (8/31) 4:50 PM EDT (8/31)
Length of Visible Light 13h 54m
Length of Day
13h 00m
Waning Crescent, 21% of the Moon is Illuminated
Aug 31
Waning Crescent
Sep 5
New
Sep 12
First Quarter
Sep 19
Full
Sep 26
Last Quarter

Hourly Weather History & Observations

Time (EDT) Temp. Heat Index Dew Point Humidity Pressure Visibility Wind Dir Wind Speed Gust Speed Precip Events Conditions
12:15 AM 68.9 °F - 68.9 °F 100% 30.03 in 3.0 mi North - - N/A   Clear
12:35 AM 68.9 °F - 68.9 °F 100% 30.03 in 2.5 mi North - - N/A   Scattered Clouds
12:55 AM 68.5 °F - 68.5 °F 100% 30.02 in 3.0 mi North - - N/A   Scattered Clouds
1:15 AM 68.4 °F - 68.4 °F 100% 30.02 in 3.0 mi North - - N/A   Mist
1:35 AM 68.5 °F - 68.5 °F 100% 30.02 in 3.0 mi North - - N/A   Mist
1:55 AM 68.4 °F - 68.4 °F 100% 30.02 in 2.5 mi North - - N/A   Scattered Clouds
2:15 AM 68.0 °F - 68.0 °F 100% 30.02 in 3.0 mi North - - N/A   Clear
2:35 AM 67.8 °F - 67.8 °F 100% 30.01 in 2.5 mi North - - N/A   Clear
2:55 AM 67.6 °F - 67.6 °F 100% 30.01 in 3.0 mi North - - N/A   Mostly Cloudy
3:15 AM 68.0 °F - 68.0 °F 100% 30.01 in 1.2 mi North - - N/A   Overcast
3:35 AM 68.4 °F - 68.4 °F 100% 30.01 in 0.8 mi North - - N/A   Overcast
3:55 AM 68.0 °F - 68.0 °F 100% 30.02 in 0.8 mi North - - N/A   Overcast
4:15 AM 67.8 °F - 67.8 °F 100% 30.01 in 2.5 mi North - - N/A   Overcast
4:35 AM 67.1 °F - 67.1 °F 100% 30.02 in 2.5 mi North - - N/A   Overcast
4:55 AM 66.6 °F - 66.6 °F 100% 30.01 in 3.0 mi North - - N/A   Overcast
5:15 AM 66.9 °F - 66.9 °F 100% 30.01 in 2.0 mi North - - N/A   Overcast
5:35 AM 67.1 °F - 67.1 °F 100% 30.01 in 2.0 mi North - - N/A   Overcast
5:55 AM 67.1 °F - 67.1 °F 100% 30.01 in 0.5 mi North - - N/A Fog Fog
6:15 AM 67.5 °F - 67.5 °F 100% 30.01 in 0.5 mi North - - N/A Fog Fog
6:35 AM 67.5 °F - 67.5 °F 100% 30.01 in 0.5 mi North - - N/A Fog Fog
6:55 AM 67.5 °F - 67.5 °F 100% 30.02 in 0.5 mi North - - N/A Fog Fog
7:15 AM 67.5 °F - 67.5 °F 100% 30.02 in 0.2 mi North - - N/A Fog Fog
7:35 AM 66.9 °F - 66.9 °F 100% 30.02 in 1.5 mi North - - N/A   Overcast
7:55 AM 67.1 °F - 67.1 °F 100% 30.03 in 5.0 mi North - - N/A   Overcast
8:15 AM 67.6 °F - 67.6 °F 100% 30.03 in 5.0 mi North - - N/A   Overcast
8:35 AM 68.4 °F - 68.4 °F 100% 30.04 in 4.0 mi North - - N/A   Overcast
8:55 AM 69.3 °F - 69.3 °F 100% 30.05 in 5.0 mi North - - N/A   Overcast
9:15 AM 70.2 °F - 70.2 °F 100% 30.05 in 7.0 mi North - - N/A   Mostly Cloudy
9:35 AM 72.5 °F - 71.8 °F 98% 30.05 in 7.0 mi North - - N/A   Mostly Cloudy
9:55 AM 74.3 °F - 72.1 °F 93% 30.04 in 7.0 mi North - - N/A   Overcast
10:15 AM 75.6 °F - 72.3 °F 90% 30.05 in 10.0 mi North - - N/A   Mostly Cloudy
10:35 AM 78.1 °F - 72.7 °F 83% 30.04 in 7.0 mi North - - N/A   Mostly Cloudy
10:55 AM 78.8 °F - 72.1 °F 80% 30.04 in 10.0 mi North - - N/A   Mostly Cloudy
11:15 AM 80.8 °F 85.4 °F 73.0 °F 77% 30.04 in 10.0 mi North - - N/A   Mostly Cloudy
11:35 AM 81.9 °F 87.5 °F 73.6 °F 76% 30.04 in 10.0 mi North - - N/A   Mostly Cloudy
11:55 AM 82.8 °F 89.0 °F 73.6 °F 74% 30.03 in 10.0 mi North - - N/A   Mostly Cloudy
12:15 PM 83.7 °F 90.7 °F 74.1 °F 73% 30.03 in 10.0 mi North - - N/A   Mostly Cloudy
12:35 PM 83.3 °F 90.5 °F 74.5 °F 75% 30.01 in 10.0 mi North - - N/A   Mostly Cloudy
12:55 PM 83.3 °F 90.2 °F 74.3 °F 74% 30.02 in 10.0 mi North - - N/A   Mostly Cloudy
1:15 PM 81.5 °F 87.4 °F 74.5 °F 79% 30.02 in 10.0 mi North - - N/A   Mostly Cloudy
1:35 PM 81.3 °F 87.2 °F 74.7 °F 80% 30.01 in 10.0 mi North - - N/A   Scattered Clouds
1:55 PM 81.0 °F 86.7 °F 74.8 °F 82% 30.01 in 10.0 mi North - - N/A   Scattered Clouds
2:15 PM 77.0 °F - 73.2 °F 88% 30.04 in 2.0 mi North - - N/A Rain Heavy Rain
2:35 PM 72.0 °F - 71.1 °F 97% 30.03 in 4.0 mi North - - N/A Rain Light Rain
2:55 PM 72.0 °F - 71.8 °F 99% 30.02 in 1.8 mi North - - N/A Rain Rain
3:15 PM 71.8 °F - 71.8 °F 100% 30.01 in 2.5 mi North - - N/A Rain Light Rain
3:35 PM 72.7 °F - 72.7 °F 100% 29.99 in 4.0 mi North - - N/A   Scattered Clouds
3:55 PM 74.7 °F - 72.7 °F 94% 29.99 in 7.0 mi North - - N/A   Mostly Cloudy
4:15 PM 77.9 °F - 73.4 °F 86% 29.99 in 10.0 mi North - - N/A   Mostly Cloudy
4:35 PM 79.0 °F - 73.2 °F 82% 29.99 in 10.0 mi North - - N/A   Scattered Clouds
4:55 PM 79.9 °F - 72.3 °F 78% 29.98 in 10.0 mi North - - N/A   Clear
5:15 PM 80.1 °F 84.4 °F 73.2 °F 80% 29.97 in 10.0 mi North - - N/A   Clear
5:35 PM 79.0 °F - 71.8 °F 78% 29.96 in 10.0 mi North - - N/A   Clear
5:55 PM 78.4 °F - 72.5 °F 82% 29.96 in 10.0 mi North - - N/A   Clear
6:15 PM 78.4 °F - 72.5 °F 82% 29.97 in 10.0 mi North - - N/A   Scattered Clouds
6:35 PM 75.9 °F - 71.6 °F 86% 29.98 in 10.0 mi North - - N/A   Clear
6:55 PM 73.2 °F - 72.0 °F 96% 30.00 in 7.0 mi North - - N/A   Clear
7:15 PM 72.0 °F - 71.2 °F 98% 30.01 in 7.0 mi North - - N/A   Clear
7:35 PM 71.6 °F - 70.9 °F 98% 30.01 in 5.0 mi North - - N/A   Clear
7:55 PM 70.7 °F - 70.7 °F 100% 30.01 in 4.0 mi North - - N/A   Clear
8:15 PM 70.2 °F - 70.2 °F 100% 30.00 in 5.0 mi North - - N/A   Clear
8:35 PM 69.8 °F - 69.8 °F 100% 30.00 in 5.0 mi North - - N/A   Clear
8:55 PM 69.4 °F - 69.4 °F 100% 30.00 in 5.0 mi North - - N/A   Clear
9:15 PM 69.1 °F - 69.1 °F 100% 30.01 in 4.0 mi North - - N/A   Clear
9:35 PM 69.1 °F - 69.1 °F 100% 30.01 in 4.0 mi North - - N/A   Clear
9:55 PM 69.1 °F - 69.1 °F 100% 30.01 in 4.0 mi North - - N/A   Scattered Clouds
10:15 PM 68.9 °F - 68.9 °F 100% 30.00 in 4.0 mi North - - N/A   Scattered Clouds
10:35 PM 68.9 °F - 68.9 °F 100% 30.00 in 3.0 mi North - - N/A   Scattered Clouds
10:55 PM 69.1 °F - 69.1 °F 100% 30.00 in 5.0 mi North - - N/A   Scattered Clouds
11:15 PM 69.1 °F - 69.1 °F 100% 30.00 in 4.0 mi North - - N/A   Mostly Cloudy
11:35 PM 69.3 °F - 69.3 °F 100% 30.00 in 4.0 mi North - - N/A   Scattered Clouds
11:55 PM 68.9 °F - 68.9 °F 100% 30.00 in 3.0 mi North - - N/A   Scattered Clouds